This demonstration page uses our WeatherBlox Daily Observations layout. Learn more.

40.92945, -100.16068

Hourly Observations for June 21, 2015

Temp ( °F °C ) Dew Point ( °F °C ) Humidity (%) Winds ( mph kmh ) Pressure ( in mb ) Visibility ( mi km ) Precip ( " mm )
12:15 am 00:15 Clear 64 18 63 17 94 94 NNE 7 11 29.91 1013 10 16.0934 N/A
12:35 am 00:35 Clear 66 18.7 64 17.5 93 93 NNE 5 7 29.91 1013 10 16.0934 N/A
12:55 am 00:55 Clear 65 18.3 63 17.2 93 93 NNE 7 11 29.91 1013 10 16.0934 N/A
1:15 am 01:15 Clear 65 18.1 63 17 93 93 E 5 7 29.91 1013 10 16.0934 N/A
1:35 am 01:35 Clear 64 17.8 62 16.5 92 92 E 5 7 29.91 1013 10 16.0934 N/A
1:55 am 01:55 Clear 64 17.9 62 16.5 92 92 SE 3 6 29.91 1013 10 16.0934 N/A
2:15 am 02:15 Clear 64 17.8 61 16.2 90 90 ESE 3 6 29.88 1012 10 16.0934 N/A
2:35 am 02:35 Clear 65 18.2 62 16.6 90 90 SE 3 6 29.88 1012 10 16.0934 N/A
2:55 am 02:55 Clear 63 17.3 61 16 92 92 Calm 29.88 1012 10 16.0934 N/A
3:15 am 03:15 Clear 62 16.4 60 15.3 93 93 Calm 29.88 1012 10 16.0934 N/A
3:35 am 03:35 Clear 61 16.3 59 15.2 93 93 Calm 29.88 1012 10 16.0934 N/A
3:55 am 03:55 Clear 61 16.3 60 15.4 94 94 Calm 29.88 1012 7 11.26538 N/A
4:15 am 04:15 Clear 62 16.5 60 15.6 94 94 ESE 3 6 29.85 1011 10 16.0934 N/A
4:35 am 04:35 Clear 61 16.1 60 15.3 95 95 ENE 3 6 29.85 1011 10 16.0934 N/A
4:55 am 04:55 Clear 61 15.9 59 15.1 95 95 Calm 29.85 1011 7 11.26538 N/A
5:15 am 05:15 Clear 62 16.5 60 15.7 95 95 SSE 6 9 29.83 1010 7 11.26538 N/A
5:35 am 05:35 Clear 63 17 61 16.1 94 94 Calm 29.83 1010 10 16.0934 N/A
5:55 am 05:55 Clear 62 16.8 60 15.7 93 93 N 5 7 29.85 1011 7 11.26538 N/A
6:15 am 06:15 Partly Cloudy 65 18.4 64 17.7 96 96 NNE 21 33 29.97 1015 7 11.26538 N/A
6:35 am 06:35 Mostly Cloudy 69 20.6 65 18.3 87 87 NE 13 20 29.91 1013 10 16.0934 N/A
6:55 am 06:55 Cloudy 69 20.6 65 18.2 86 86 ENE 12 19 29.91 1013 10 16.0934 N/A
7:15 am 07:15 Mostly Cloudy 69 20.6 65 18.3 87 87 E 12 19 29.88 1012 10 16.0934 N/A
7:35 am 07:35 Sunny 70 21 65 18.5 86 86 E 10 17 29.88 1012 10 16.0934 N/A
7:55 am 07:55 Partly Cloudy 70 21 65 18.6 86 86 ENE 12 19 29.91 1013 10 16.0934 N/A
8:15 am 08:15 Mostly Cloudy 69 20.5 64 18 86 86 NNE 16 26 29.94 1014 10 16.0934 N/A
8:35 am 08:35 Mostly Cloudy 69 20.4 64 17.9 86 86 ENE 14 22 29.97 1015 10 16.0934 N/A
8:55 am 08:55 Sunny 69 20.5 64 18 86 86 ENE 7 11 29.94 1014 10 16.0934 N/A
9:15 am 09:15 Sunny 68 20.1 64 17.9 87 87 ENE 7 11 29.97 1015 10 16.0934 N/A
9:35 am 09:35 Sunny 69 20.3 64 18 87 87 ESE 20 31 29.88 1012 10 16.0934 N/A
9:55 am 09:55 Sunny 70 21 64 18 83 83 SE 23 37 29.77 1008 10 16.0934 N/A
10:15 am 10:15 Sunny 73 22.5 65 18.3 77 77 N 13 20 29.83 1010 10 16.0934 N/A
10:35 am 10:35 Sunny 76 24.4 65 18.3 69 69 NNE 7 11 29.85 1011 10 16.0934 N/A
10:55 am 10:55 Sunny 77 25 65 18.1 66 66 E 8 13 29.88 1012 10 16.0934 N/A
11:15 am 11:15 Sunny 78 25.6 65 18.1 63 63 ENE 9 15 29.85 1011 10 16.0934 N/A
11:35 am 11:35 Sunny 78 25.6 64 17.8 62 62 E 9 15 29.85 1011 10 16.0934 N/A
12:15 pm 12:15 Sunny 79 26 65 18.1 62 62 ESE 9 15 29.85 1011 10 16.0934 N/A
12:35 pm 12:35 Sunny 79 26.1 65 18.6 63 63 E 9 15 29.85 1011 10 16.0934 N/A
1:15 pm 13:15 Sunny 80 26.7 67 19.2 64 64 E 8 13 29.8 1009 10 16.0934 N/A
1:35 pm 13:35 Sunny 80 26.8 67 19.3 64 64 E 9 15 29.8 1009 10 16.0934 N/A
1:55 pm 13:55 Sunny 81 27.2 68 20.2 66 66 E 9 15 29.77 1008 10 16.0934 N/A
2:15 pm 14:15 Sunny 82 27.9 69 20.7 65 65 E 9 15 29.8 1009 10 16.0934 N/A
2:35 pm 14:35 Sunny 82 28 69 20.5 64 64 SE 13 20 29.77 1008 10 16.0934 N/A
2:55 pm 14:55 Sunny 83 28.2 69 20.6 63 63 ESE 9 15 29.77 1008 10 16.0934 N/A
3:15 pm 15:15 Sunny 83 28.5 69 20.8 63 63 SSE 10 17 29.77 1008 10 16.0934 N/A
3:35 pm 15:35 Sunny 83 28.5 71 21.5 66 66 SE 12 19 29.77 1008 10 16.0934 N/A
3:55 pm 15:55 Sunny 83 28.5 71 21.4 65 65 ESE 10 17 29.77 1008 10 16.0934 N/A
4:15 pm 16:15 Sunny 83 28.6 71 21.7 66 66 ESE 10 17 29.74 1007 10 16.0934 N/A
4:35 pm 16:35 Sunny 84 28.9 71 21.7 65 65 ESE 14 22 29.74 1007 10 16.0934 N/A
4:55 pm 16:55 Partly Cloudy 84 29 72 22 66 66 ESE 12 19 29.74 1007 10 16.0934 N/A
5:15 pm 17:15 Partly Cloudy 84 29.1 72 22.2 66 66 E 9 15 29.74 1007 10 16.0934 N/A
5:35 pm 17:35 Sunny 85 29.2 72 22.1 66 66 ESE 12 19 29.68 1005 10 16.0934 N/A
5:55 pm 17:55 Sunny 85 29.3 72 22.4 66 66 ESE 10 17 29.68 1005 10 16.0934 N/A
6:15 pm 18:15 Sunny 84 29.1 73 22.5 68 68 ESE 9 15 29.68 1005 10 16.0934 N/A
6:35 pm 18:35 Sunny 85 29.2 73 22.6 68 68 ESE 12 19 29.65 1004 10 16.0934 N/A
6:55 pm 18:55 Sunny 84 29 73 22.9 70 70 SE 6 9 29.65 1004 10 16.0934 N/A
7:15 pm 19:15 Sunny 84 29.1 73 22.9 69 69 ESE 9 15 29.65 1004 10 16.0934 N/A
7:35 pm 19:35 Sunny 84 29 73 22.9 70 70 ESE 9 15 29.65 1004 10 16.0934 N/A
7:55 pm 19:55 Sunny 83 28.5 73 23 72 72 E 10 17 29.65 1004 10 16.0934 N/A
8:15 pm 20:15 Sunny 83 28.2 74 23.1 74 74 ESE 8 13 29.68 1005 10 16.0934 N/A
8:35 pm 20:35 Sunny 82 27.7 73 23 76 76 ESE 7 11 29.65 1004 10 16.0934 N/A
8:55 pm 20:55 Sunny 81 27 73 23 79 79 E 8 13 29.65 1004 10 16.0934 N/A
9:15 pm 21:15 Clear 79 26 73 23 84 84 E 8 13 29.65 1004 10 16.0934 N/A
9:35 pm 21:35 Clear 78 25.5 73 23 86 86 E 7 11 29.65 1004 10 16.0934 N/A
9:55 pm 21:55 Clear 78 25.5 74 23.3 88 88 E 7 11 29.65 1004 10 16.0934 N/A
10:15 pm 22:15 Clear 78 25.5 74 23.4 88 88 ESE 8 13 29.65 1004 10 16.0934 N/A
10:35 pm 22:35 Clear 78 25.5 74 23.4 88 88 E 9 15 29.65 1004 10 16.0934 N/A
10:55 pm 22:55 Clear 77 25.1 74 23.3 90 90 ESE 7 11 29.62 1003 10 16.0934 N/A
11:15 pm 23:15 Clear 77 25 74 23.3 90 90 ESE 8 13 29.62 1003 10 16.0934 N/A
11:35 pm 23:35 Clear 77 25.1 74 23.5 91 91 SE 8 13 29.62 1003 10 16.0934 N/A
11:55 pm 23:55 Clear 77 25 74 23.3 90 90 SE 6 9 29.62 1003 10 16.0934 N/A

Powered by AerisWeather